TimeCDT,TemperatureF,Dew PointF,Humidity,Sea Level PressureIn,VisibilityMPH,Wind Direction,Wind SpeedMPH,Gust SpeedMPH,PrecipitationIn,Events,Conditions,WindDirDegrees,DateUTC
12:53 AM,42.1,35.1,76,29.95,10.0,NE,11.5,-,N/A,,Overcast,40,2013-03-23 05:53:00
1:33 AM,42.8,35.6,76,29.92,10.0,NE,10.4,-,N/A,,Overcast,50,2013-03-23 06:33:00
1:53 AM,42.1,35.1,76,29.92,10.0,NE,12.7,-,N/A,,Overcast,50,2013-03-23 06:53:00
2:53 AM,42.1,36.0,79,29.91,10.0,NE,9.2,-,N/A,,Overcast,40,2013-03-23 07:53:00
3:29 AM,42.8,35.6,76,29.89,10.0,NE,10.4,-,N/A,,Overcast,40,2013-03-23 08:29:00
3:53 AM,42.1,36.0,79,29.90,10.0,NE,8.1,-,N/A,,Overcast,40,2013-03-23 08:53:00
4:53 AM,42.1,34.0,73,29.91,10.0,NE,9.2,-,N/A,,Overcast,50,2013-03-23 09:53:00
5:53 AM,42.1,34.0,73,29.92,10.0,NNE,10.4,-,N/A,,Overcast,30,2013-03-23 10:53:00
6:01 AM,42.8,33.8,70,29.92,10.0,NNE,11.5,-,N/A,,Overcast,30,2013-03-23 11:01:00
6:53 AM,42.1,33.1,70,29.93,10.0,NE,10.4,-,N/A,,Overcast,40,2013-03-23 11:53:00
7:00 AM,42.8,33.8,70,29.93,10.0,NE,10.4,-,N/A,,Overcast,40,2013-03-23 12:00:00
7:53 AM,42.1,34.0,73,29.93,10.0,NE,10.4,-,N/A,,Overcast,40,2013-03-23 12:53:00
8:53 AM,43.0,35.1,74,29.94,10.0,NE,9.2,-,N/A,,Overcast,50,2013-03-23 13:53:00
9:33 AM,42.8,35.6,76,29.95,10.0,NE,11.5,-,N/A,,Overcast,50,2013-03-23 14:33:00
9:53 AM,43.0,35.1,74,29.95,10.0,NNE,11.5,-,N/A,,Overcast,30,2013-03-23 14:53:00
10:45 AM,46.4,37.4,71,29.92,10.0,NE,15.0,-,N/A,,Overcast,50,2013-03-23 15:45:00
10:53 AM,46.0,37.9,73,29.91,10.0,NE,17.3,23.0,N/A,,Overcast,50,2013-03-23 15:53:00
11:53 AM,48.0,41.0,77,29.91,10.0,ENE,13.8,21.9,N/A,,Overcast,60,2013-03-23 16:53:00
12:53 PM,48.9,42.1,77,29.90,10.0,ENE,13.8,-,N/A,,Overcast,70,2013-03-23 17:53:00
1:10 PM,48.2,42.8,82,29.89,10.0,ENE,12.7,-,N/A,,Overcast,70,2013-03-23 18:10:00
1:53 PM,50.0,42.1,74,29.87,9.0,ENE,15.0,-,N/A,,Overcast,60,2013-03-23 18:53:00
2:24 PM,51.8,42.8,71,29.83,9.0,ENE,17.3,-,N/A,,Overcast,70,2013-03-23 19:24:00
2:37 PM,50.0,42.8,76,29.84,9.0,ENE,16.1,-,N/A,,Overcast,60,2013-03-23 19:37:00
2:53 PM,50.0,42.1,74,29.83,10.0,ENE,15.0,-,N/A,,Overcast,60,2013-03-23 19:53:00
3:53 PM,50.0,43.0,77,29.81,10.0,NE,12.7,-,N/A,,Overcast,50,2013-03-23 20:53:00
4:53 PM,50.0,43.0,77,29.76,10.0,NE,11.5,-,0.00,,Overcast,50,2013-03-23 21:53:00
5:53 PM,50.0,43.0,77,29.79,10.0,NNE,8.1,-,0.00,Rain,Light Rain,20,2013-03-23 22:53:00
6:53 PM,48.0,41.0,77,29.76,10.0,NE,10.4,-,0.00,,Overcast,40,2013-03-23 23:53:00
7:53 PM,46.9,43.0,86,29.74,10.0,ENE,11.5,-,0.00,Rain,Light Rain,60,2013-03-24 00:53:00
8:53 PM,46.9,44.1,90,29.75,8.0,ENE,9.2,-,0.04,Rain,Light Rain,70,2013-03-24 01:53:00
9:53 PM,46.9,45.0,93,29.73,6.0,ENE,9.2,-,0.02,Rain,Light Rain,60,2013-03-24 02:53:00
10:01 PM,46.4,44.6,93,29.72,7.0,ENE,10.4,-,N/A,Rain,Light Rain,60,2013-03-24 03:01:00
10:49 PM,46.4,44.6,93,29.72,7.0,North,8.1,-,0.02,Rain,Light Rain,10,2013-03-24 03:49:00
10:53 PM,46.9,45.0,93,29.72,8.0,North,6.9,-,0.02,Rain,Light Rain,10,2013-03-24 03:53:00
11:33 PM,48.2,46.4,93,29.70,8.0,NNE,6.9,-,0.00,,Overcast,30,2013-03-24 04:33:00
11:53 PM,48.0,46.9,96,29.70,8.0,NNE,6.9,-,0.00,,Overcast,30,2013-03-24 04:53:00